Springdale, AR

10:52 AM CST on January 24, 2017 (GMT -0600)
Springdale Municipal

Weather History for KASG - February, 2013

Change the Weather History Date:

Tuesday, February 26, 2013

  Actual Average Record
Temperature  
Mean Temperature 32 °F -  
Max Temperature 33 °F 49 °F 71 °F (2009)
Min Temperature 32 °F 35 °F 15 °F (2002)
Degree Days  
Heating Degree Days 32    
Moisture  
Dew Point 31 °F    
Average Humidity 93    
Maximum Humidity 100    
Minimum Humidity 87    
Precipitation  
Precipitation 0.00 in - - ()
Sea Level Pressure  
Sea Level Pressure 29.60 in    
Wind  
Wind Speed 14 mph (WNW)    
Max Wind Speed 17 mph    
Max Gust Speed 25 mph    
Visibility 5 miles    
Events Snow    
Averages and records for this station are not official NWS values.
T = Trace of Precipitation, MM = Missing Value Source: NWS Daily Summary

Daily Weather History Graph

Daily Weather History Graph

Search for Another Location

Airport or City:

Trip Planner

Search our weather history database for the weather conditions in past years. The results will help you decide how hot, cold, wet, or windy it might be!

Date:

Astronomy

Feb. 26, 2013 Rise Set
Actual Time 6:50 AM CST 6:08 PM CST
Civil Twilight 6:24 AM CST 6:34 PM CST
Nautical Twilight 5:54 AM CST 7:04 PM CST
Astronomical Twilight 5:24 AM CST 7:34 PM CST
Moon 7:22 PM CST (2/26) 6:56 AM CST (2/26)
Length of Visible Light 12h 10m
Length of Day
11h 18m
Full, 99% of the Moon is Illuminated
Feb 26
Full
Mar 4
Last Quarter
Mar 11
New
Mar 19
First Quarter
Mar 27
Full

Hourly Weather History & Observations

Time (CST) Temp. Windchill Dew Point Humidity Pressure Visibility Wind Dir Wind Speed Gust Speed Precip Events Conditions
5:48 AM 32.0 °F 22.5 °F 32.0 °F 100% 29.41 in 7.0 mi WNW 12.7 mph - N/A Snow Light Snow
6:30 AM 32.0 °F 22.1 °F 32.0 °F 100% 29.43 in 2.5 mi WNW 13.8 mph 20.7 mph N/A Snow Light Snow
6:48 AM 32.0 °F 22.5 °F 32.0 °F 100% 29.44 in 2.0 mi NW 12.7 mph 20.7 mph N/A Snow Light Snow
7:25 AM 32.0 °F 22.5 °F 32.0 °F 100% 29.45 in 0.5 mi NW 12.7 mph 23.0 mph N/A Snow Snow
7:48 AM 32.0 °F 23.6 °F 30.2 °F 93% 29.48 in 1.0 mi WNW 10.4 mph - N/A Snow Light Snow
8:27 AM 32.0 °F 21.2 °F 30.2 °F 93% 29.50 in 0.5 mi WNW 16.1 mph - N/A Snow Snow
8:41 AM 32.0 °F 21.6 °F 30.2 °F 93% 29.50 in 3.0 mi WNW 15.0 mph 23.0 mph N/A   Overcast
8:48 AM 32.0 °F 21.6 °F 32.0 °F 100% 29.51 in 7.0 mi NW 15.0 mph 23.0 mph N/A   Overcast
9:48 AM 32.0 °F 21.2 °F 32.0 °F 100% 29.54 in 10.0 mi NW 16.1 mph 23.0 mph N/A   Overcast
10:48 AM 32.0 °F 21.6 °F 32.0 °F 100% 29.57 in 10.0 mi NW 15.0 mph 24.2 mph N/A   Overcast
11:48 AM 33.8 °F 24.8 °F 30.2 °F 87% 29.61 in 9.0 mi WNW 12.7 mph 20.7 mph N/A   Overcast
12:48 PM 33.8 °F 24.8 °F 30.2 °F 87% 29.63 in 9.0 mi WNW 12.7 mph 24.2 mph N/A   Overcast
1:48 PM 33.8 °F 23.5 °F 30.2 °F 87% 29.65 in 8.0 mi WNW 16.1 mph 24.2 mph N/A   Overcast
3:48 PM 33.8 °F 23.5 °F 30.2 °F 87% 29.69 in 6.0 mi WNW 16.1 mph 21.9 mph N/A   Overcast
4:48 PM 33.8 °F 24.3 °F 30.2 °F 87% 29.72 in 5.0 mi NW 13.8 mph 25.3 mph N/A   Overcast
5:48 PM 33.8 °F 25.3 °F 30.2 °F 87% 29.76 in 5.0 mi WNW 11.5 mph 23.0 mph N/A   Overcast
6:48 PM 33.8 °F 24.8 °F 30.2 °F 87% 29.79 in 5.0 mi NW 12.7 mph 24.2 mph N/A   Overcast
7:48 PM 33.8 °F 23.2 °F 32.0 °F 93% 29.81 in 5.0 mi WNW 17.3 mph - N/A   Overcast
8:48 PM 33.8 °F 24.3 °F 32.0 °F 93% 29.83 in 5.0 mi NW 13.8 mph - N/A   Overcast